Back to catalog

KUIPER-00533

AliveCommunicationsLEO
NORAD 69605·PAYLOAD·🇺🇸 United States

Launched Jun 17, 2026 from Guiana Space Centre

Loading…

Next Passes (next 24 hours)

TLE

FreshSource: CelesTrak SupGP

Epoch: Sep 14, 2026, 17:22 UTC

1 69605C 26140P   26257.72412037  .00007762  00000+0  10162-2 0  2577
2 69605  51.9019 337.2458 0000427  82.3613  67.5838 14.79917249    12

Track KUIPER-00533 in real time with AllMySat

Download on the App Store